[[{"header":{"parameterUnit":"m.s-1","parameterCategory":1,"la1":30.2991,"la2":30.254,"lo1":-89.0895,"lo2":-89.0444,"dy":0.0017,"dx":0.0017,"nx":28,"ny":28,"refTime":"2024-06-08T09:00:00:Z","depth":0,"parameterNumber":2,"parameterNumberName":"U-component_of_WINDS"},"data":[0,0,0,0,0,0,0,0,0,0,0,0,0,0,0,0,0,0,0,0,0,0,0,0,0,0,0,0,0,0,0,0,0,0,0,0,0,0,0,0,0,0,0,0,0,0,0,0,0,0,0,0,0,0,0,0,0,0,-1.7478,-1.7477,0,-1.7367,-1.7366,-1.7364,-1.7239,-1.7237,-1.7235,-1.7234,-1.7119,-1.7117,-1.7116,0,0,0,0,0,0,0,0,0,0,0,0,0,-1.7584,-1.7583,-1.7479,-1.7477,-1.7476,-1.7367,-1.7366,-1.7364,-1.7239,-1.7237,-1.7235,-1.7233,-1.7119,-1.7118,-1.7116,0,0,0,0,0,0,0,0,0,0,0,0,0,-1.7512,-1.7583,-1.7479,-1.74,-1.7392,-1.7367,-1.7366,-1.7364,-1.724,-1.7237,-1.7234,-1.7232,-1.712,-1.7118,-1.7116,-1.7159,0,0,-1.711,-1.7109,0,0,0,0,0,0,0,0,-1.7517,-1.7509,-1.7413,-1.7406,-1.7397,-1.7314,-1.7361,-1.7295,-1.724,-1.7298,-1.7233,-1.723,-1.7186,-1.7178,-1.7163,-1.7154,-1.7149,-1.7109,-1.7108,-1.7107,-1.7107,0,0,0,0,0,0,0,-1.7522,-1.7513,-1.7434,-1.7412,-1.7402,-1.7371,-1.7358,-1.7348,-1.7259,-1.7292,-1.7283,-1.7272,-1.7181,-1.7166,-1.716,-1.7147,-1.711,-1.7108,-1.7106,-1.7106,-1.7168,-1.7171,0,0,0,0,0,0,-1.7539,-1.7518,-1.7438,-1.7431,-1.7451,-1.7372,-1.7357,-1.7343,-1.7258,-1.7243,-1.7274,-1.7266,-1.717,-1.7162,-1.7155,-1.7201,-1.7107,-1.7106,-1.7104,-1.7166,-1.7169,-1.7172,0,0,0,0,0,0,-1.7541,-1.7533,-1.7442,-1.7472,-1.7458,-1.7373,-1.7359,-1.7343,-1.7327,-1.7245,-1.7228,-1.7275,-1.7168,-1.7158,-1.7159,-1.7195,-1.7105,-1.7103,-1.7162,-1.7167,-1.7171,-1.7292,0,0,0,0,0,0,-1.7545,-1.7534,-1.7549,-1.7473,-1.7457,-1.7448,-1.7361,-1.7342,-1.7324,-1.7313,-1.7241,-1.7226,-1.7165,-1.7163,-1.7157,-1.719,-1.7101,-1.7159,-1.7164,-1.7169,-1.7284,-1.73,-1.7313,0,0,0,0,0,-1.7549,-1.7587,-1.7551,-1.7542,-1.7474,-1.745,-1.7441,-1.737,-1.7328,-1.7342,-1.729,-1.7229,-1.7193,-1.7164,-1.7157,-1.719,-1.7156,-1.7163,-1.7169,-1.7278,-1.7297,-1.7313,0,0,0,0,0,0,-1.7669,-1.7576,-1.7534,-1.7549,-1.7509,-1.7429,-1.7445,-1.7392,-1.7363,-1.7353,-1.7266,-1.7251,-1.7263,-1.7226,-1.7197,-1.7228,-1.7166,-1.7171,-1.7251,-1.7268,-1.7282,-1.729,-1.71,0,0,0,0,0,-1.7698,-1.7687,-1.7605,-1.7626,-1.7609,-1.7531,-1.7518,-1.7467,-1.7422,-1.7404,-1.7351,-1.731,-1.7289,-1.7277,-1.7253,-1.7279,-1.7262,-1.7299,-1.7313,-1.7325,-1.733,-1.7343,-1.7358,-1.7193,-1.7193,-1.7193,0,0,-1.7756,-1.7704,-1.7701,-1.7649,-1.7612,-1.7603,-1.7517,-1.7511,-1.7503,-1.7403,-1.74,-1.7361,-1.7309,-1.7324,-1.7327,-1.7293,-1.7373,-1.7334,-1.7344,-1.7342,-1.7351,-1.7367,-1.7381,-1.7198,-1.7197,-1.7196,0,0,-1.7857,-1.7816,-1.7829,-1.7795,-1.774,-1.7688,-1.7692,-1.7621,-1.7591,-1.7588,-1.7513,-1.7504,-1.7469,-1.7436,-1.7414,-1.7506,-1.7449,-1.7501,-1.7575,-1.7589,-1.7602,-1.7613,-1.7646,-1.7659,-1.7507,-1.7507,-1.7507,0,-1.7936,-1.7918,-1.7843,-1.7841,-1.7821,-1.7732,-1.7745,-1.7715,-1.7655,-1.7643,-1.7607,-1.7564,-1.7522,-1.7528,-1.7551,-1.7537,-1.7538,-1.7508,-1.7606,-1.7616,-1.7625,-1.7656,-1.7669,-1.7514,-1.7513,-1.7512,-1.7512,0,-1.8018,-1.8008,-1.8025,-1.7971,-1.7953,-1.7959,-1.7885,-1.7876,-1.7828,-1.7781,-1.778,-1.7728,-1.7692,-1.769,-1.7642,-1.769,-1.7671,-1.7622,-1.7557,-1.7649,-1.7676,-1.7687,-1.7523,-1.7521,-1.7519,-1.7517,0,0,-1.8189,-1.8095,-1.8103,-1.8078,-1.8012,-1.8002,-1.8006,-1.7972,-1.7966,-1.7929,-1.7929,-1.7904,-1.7859,-1.7835,-1.7783,-1.7794,-1.7872,-1.7743,-1.7741,-1.7769,-1.7922,-1.7959,-1.7973,-1.7834,-1.7836,-1.7838,-1.7926,0,-1.8278,-1.8277,-1.8211,-1.8228,-1.8218,-1.8135,-1.8137,-1.8098,-1.8055,-1.8041,-1.7993,-1.7976,-1.7918,-1.7903,-1.7911,-1.7861,-1.7901,-1.7853,-1.7834,-1.7834,-1.7848,-1.7987,-1.8025,-1.8111,-1.7936,-1.7938,-1.7939,0,-1.838,-1.835,-1.8367,-1.8303,-1.8296,-1.83,-1.8264,-1.8252,-1.8206,-1.8174,-1.8149,-1.8091,-1.809,-1.803,-1.8028,-1.7998,-1.7986,-1.7961,-1.7962,-1.7957,-1.7891,-1.7985,-1.8136,-1.8149,-1.7955,-1.7954,-1.7953,0,-1.8503,-1.8467,-1.8473,-1.8454,-1.8379,-1.8384,-1.8353,-1.8304,-1.8289,-1.8259,-1.8248,-1.8218,-1.8202,-1.818,-1.8116,-1.8078,-1.8122,-1.8056,-1.8095,-1.8097,-1.8106,-1.8107,-1.8258,-1.8101,-1.8101,-1.8101,-1.8101,0,-1.8608,-1.8622,-1.8527,-1.8531,-1.8544,-1.8469,-1.8484,-1.8445,-1.8404,-1.8399,-1.8325,-1.8322,-1.8238,-1.8226,-1.8176,-1.8182,-1.8175,-1.815,-1.8136,-1.8155,-1.8159,-1.8146,-1.8138,-1.8104,-1.8104,-1.8103,-1.8102,0,-1.8747,-1.8684,-1.8684,-1.8614,-1.8597,-1.861,-1.855,-1.8551,-1.8505,-1.85,-1.8494,-1.8422,-1.8404,-1.8338,-1.8304,-1.827,-1.8293,-1.8267,-1.8308,-1.8299,-1.8342,-1.8339,-1.8489,-1.8505,-1.834,-1.8341,-1.8343,0,-1.8817,-1.8826,-1.8758,-1.8749,-1.8722,-1.8709,-1.8693,-1.8621,-1.8608,-1.8558,-1.8565,-1.8542,-1.8519,-1.8495,-1.8439,-1.8413,-1.8385,-1.844,-1.8381,-1.8401,-1.8386,-1.8386,-1.8387,-1.8453,-1.8455,-1.8457,-1.8458,0,-1.895,-1.8919,-1.8899,-1.8869,-1.8853,-1.8826,-1.8795,-1.8792,-1.8711,-1.8701,-1.8682,-1.8665,-1.8631,-1.8609,-1.8574,-1.8543,-1.8488,-1.8478,-1.8485,-1.8505,-1.8528,-1.8516,-1.8342,-1.8474,-1.8472,-1.8471,-1.847,-1.847,-1.9055,-1.906,-1.9013,-1.8994,-1.8964,-1.8937,-1.8934,-1.8889,-1.8872,-1.8839,-1.8797,-1.8784,-1.874,-1.8689,-1.8662,-1.8651,-1.862,-1.8631,-1.8633,-1.8637,-1.8647,-1.8532,-1.8644,-1.8644,-1.8643,-1.8643,-1.8642,0,-1.9184,-1.915,-1.9134,-1.9093,-1.9079,-1.9029,-1.8993,-1.8984,-1.8973,-1.8937,-1.8917,-1.8897,-1.8876,-1.882,-1.8793,-1.8796,-1.877,-1.8791,-1.879,-1.8784,-1.8676,-1.8672,-1.8813,-1.8813,-1.8813,-1.8813,-1.8813,-1.8813,-1.9249,-1.9254,-1.9218,-1.9208,-1.9174,-1.9161,-1.9144,-1.912,-1.9091,-1.9071,-1.9054,-1.9018,-1.8974,-1.8944,-1.8923,-1.8907,-1.8901,-1.8931,-1.8907,-1.8807,-1.8791,-1.8775,-1.8771,-1.893,-1.8931,-1.9015,-1.9016,-1.9017]},{"header":{"parameterUnit":"m.s-1","parameterCategory":1,"la1":30.2991,"la2":30.254,"lo1":-89.0895,"lo2":-89.0444,"dy":0.0017,"dx":0.0017,"nx":28,"ny":28,"refTime":"2024-06-08T09:00:00:Z","depth":0,"parameterNumber":3,"parameterNumberName":"V-component_of_WINDS"},"data":[0,0,0,0,0,0,0,0,0,0,0,0,0,0,0,0,0,0,0,0,0,0,0,0,0,0,0,0,0,0,0,0,0,0,0,0,0,0,0,0,0,0,0,0,0,0,0,0,0,0,0,0,0,0,0,0,0,0,2.8189,2.8189,0,2.8196,2.8196,2.8196,2.8245,2.8246,2.8247,2.8249,2.8251,2.825,2.8249,0,0,0,0,0,0,0,0,0,0,0,0,0,2.8213,2.8212,2.8189,2.8189,2.8189,2.8196,2.8196,2.8196,2.8245,2.8246,2.8248,2.8249,2.8251,2.825,2.8249,0,0,0,0,0,0,0,0,0,0,0,0,0,2.8209,2.8212,2.8189,2.8214,2.8217,2.8196,2.8196,2.8196,2.8245,2.8246,2.8248,2.825,2.8251,2.825,2.8248,2.8202,0,0,2.8243,2.8243,0,0,0,0,0,0,0,0,2.8209,2.8208,2.821,2.8212,2.8215,2.8222,2.8206,2.8198,2.8244,2.8234,2.8249,2.8251,2.8239,2.8239,2.8236,2.8202,2.8203,2.8243,2.8242,2.8242,2.8241,0,0,0,0,0,0,0,2.821,2.8208,2.8191,2.821,2.8213,2.8224,2.8225,2.8204,2.8226,2.8235,2.8238,2.8239,2.8241,2.8237,2.8236,2.8203,2.8243,2.8242,2.8241,2.824,2.8132,2.813,0,0,0,0,0,0,2.8207,2.8208,2.8191,2.8192,2.8217,2.8222,2.8224,2.8218,2.8226,2.823,2.8237,2.8241,2.8239,2.8238,2.8237,2.8183,2.8242,2.824,2.8239,2.8134,2.8132,2.813,0,0,0,0,0,0,2.8207,2.8205,2.8191,2.8201,2.82,2.822,2.8212,2.8217,2.8213,2.8228,2.8232,2.823,2.8241,2.8239,2.8211,2.8184,2.8239,2.8238,2.8136,2.8133,2.8131,2.8076,0,0,0,0,0,0,2.8208,2.8205,2.8188,2.82,2.8199,2.8166,2.8211,2.8216,2.8211,2.8216,2.8223,2.8225,2.8242,2.8213,2.8209,2.8183,2.8237,2.8139,2.8135,2.8132,2.8081,2.8072,2.8065,0,0,0,0,0,2.8208,2.8172,2.8187,2.8185,2.8179,2.8165,2.8164,2.8185,2.8209,2.8192,2.8202,2.8225,2.8188,2.821,2.8206,2.8179,2.814,2.8136,2.8132,2.8084,2.8074,2.8065,0,0,0,0,0,0,2.8154,2.8173,2.8191,2.8157,2.8159,2.8173,2.8152,2.8173,2.8167,2.8172,2.8197,2.8198,2.8166,2.817,2.8194,2.8135,2.8168,2.8163,2.8133,2.8124,2.8116,2.8115,2.8235,0,0,0,0,0,2.8138,2.8126,2.8143,2.8112,2.8112,2.8132,2.8126,2.8143,2.8145,2.8145,2.8153,2.8153,2.8141,2.8133,2.8123,2.8082,2.8084,2.8061,2.8053,2.8047,2.8041,2.802,2.801,2.8115,2.8115,2.8116,0,0,2.8105,2.8114,2.8104,2.8101,2.8104,2.809,2.8132,2.8115,2.8104,2.8142,2.8117,2.8122,2.8124,2.8089,2.8074,2.8091,2.8013,2.8041,2.8036,2.8034,2.8015,2.8005,2.7996,2.8112,2.8113,2.8113,0,0,2.8037,2.8043,2.8018,2.8021,2.8026,2.804,2.8034,2.8045,2.8051,2.8026,2.8055,2.8041,2.8021,2.8021,2.8018,2.7952,2.7973,2.7948,2.7906,2.7885,2.7876,2.7869,2.7845,2.7836,2.7943,2.7943,2.7943,0,2.7994,2.7975,2.8001,2.7983,2.798,2.8016,2.799,2.7991,2.7992,2.7989,2.8009,2.7985,2.7988,2.7954,2.7938,2.7935,2.7928,2.7947,2.7876,2.7869,2.7862,2.7839,2.783,2.794,2.794,2.794,2.7941,0,2.7922,2.7908,2.7887,2.7889,2.7884,2.7862,2.7884,2.7875,2.7893,2.7904,2.7878,2.7884,2.7876,2.787,2.7886,2.7838,2.7849,2.7872,2.7905,2.7849,2.7828,2.7819,2.7935,2.7936,2.7937,2.7938,0,0,2.7818,2.7837,2.7828,2.783,2.7839,2.7829,2.7808,2.7802,2.7794,2.7794,2.7776,2.7759,2.7781,2.7778,2.7794,2.7776,2.7723,2.7801,2.7802,2.7786,2.767,2.7652,2.7641,2.7738,2.7736,2.7735,2.767,0,2.7752,2.7719,2.7743,2.7705,2.7692,2.7727,2.7709,2.7712,2.7723,2.7712,2.7723,2.7711,2.7741,2.7739,2.7723,2.7733,2.7699,2.7738,2.772,2.7719,2.7717,2.7631,2.7611,2.7549,2.7662,2.766,2.7659,0,2.7671,2.7669,2.7631,2.7644,2.7639,2.7622,2.7619,2.761,2.7614,2.7623,2.762,2.7642,2.7621,2.7656,2.7627,2.7652,2.7647,2.7651,2.7649,2.7647,2.7685,2.7625,2.753,2.7521,2.7647,2.7648,2.7649,0,2.7598,2.7586,2.7562,2.7562,2.7577,2.7564,2.7569,2.7575,2.7571,2.7568,2.7565,2.7559,2.7555,2.755,2.7569,2.7592,2.7537,2.7573,2.7543,2.7542,2.7528,2.7529,2.743,2.7526,2.7526,2.7527,2.7527,0,2.7522,2.7497,2.753,2.7514,2.7487,2.7514,2.7486,2.7495,2.75,2.7486,2.7516,2.7502,2.7529,2.7517,2.7532,2.7506,2.7504,2.751,2.7513,2.7506,2.7505,2.7502,2.7506,2.7524,2.7525,2.7525,2.7526,0,2.7435,2.7457,2.7432,2.7449,2.7452,2.7431,2.7445,2.7431,2.7444,2.7426,2.7423,2.7443,2.7432,2.7451,2.744,2.745,2.7414,2.7425,2.7413,2.7416,2.7384,2.7386,2.7278,2.7265,2.7371,2.737,2.7369,0,2.7385,2.7367,2.7382,2.7376,2.738,2.7369,2.7365,2.7391,2.7386,2.739,2.7375,2.7366,2.736,2.734,2.7352,2.7345,2.7355,2.7318,2.7354,2.7348,2.7354,2.7354,2.7352,2.731,2.7309,2.7308,2.7307,0,2.7293,2.7304,2.7298,2.7296,2.7291,2.729,2.7291,2.7284,2.7312,2.7304,2.7293,2.7289,2.728,2.727,2.7266,2.727,2.7292,2.7296,2.7288,2.728,2.7274,2.7276,2.7392,2.7298,2.7299,2.7299,2.73,2.73,2.7222,2.7208,2.7216,2.7209,2.7213,2.7213,2.7201,2.7214,2.7206,2.7202,2.7217,2.7203,2.7208,2.7205,2.7207,2.7195,2.7211,2.72,2.7198,2.7194,2.7189,2.7277,2.7195,2.7195,2.7195,2.7195,2.7196,0,2.7131,2.7139,2.7132,2.7133,2.7127,2.7151,2.7154,2.7147,2.7134,2.7138,2.7132,2.712,2.7111,2.7124,2.7117,2.7105,2.7116,2.7103,2.7103,2.7104,2.7175,2.7182,2.7095,2.7095,2.7095,2.7095,2.7095,2.7095,2.7083,2.706,2.7073,2.7052,2.706,2.7047,2.7046,2.7047,2.705,2.7036,2.7029,2.7038,2.7045,2.704,2.7032,2.7036,2.7032,2.7015,2.7023,2.7089,2.7099,2.7108,2.7115,2.7014,2.7014,2.6952,2.6951,2.6951]}]]